Seale, AL

12:45 AM CDT on August 31, 2016 (GMT -0500)
Lawson Army Air Field

Weather History for KLSF - December, 2012

Change the Weather History Date:

Friday, December 28, 2012

  Actual Average Record
Temperature  
Mean Temperature 40 °F -  
Max Temperature 55 °F 55 °F 77 °F (2015)
Min Temperature 24 °F 31 °F 17 °F (2010)
Degree Days  
Heating Degree Days 26    
Moisture  
Dew Point 30 °F    
Average Humidity 90    
Maximum Humidity 100    
Minimum Humidity 46    
Precipitation  
Precipitation 0.15 in - - ()
Sea Level Pressure  
Sea Level Pressure 30.07 in    
Wind  
Wind Speed 1 mph (ESE)    
Max Wind Speed 8 mph    
Max Gust Speed -    
Visibility 5 miles    
Events Fog , Rain    
Averages and records for this station are not official NWS values.
T = Trace of Precipitation, MM = Missing Value Source: NWS Daily Summary

Daily Weather History Graph

Daily Weather History Graph

Search for Another Location

Airport or City:

Trip Planner

Search our weather history database for the weather conditions in past years. The results will help you decide how hot, cold, wet, or windy it might be!

Date:

Astronomy

Dec. 28, 2012 Rise Set
Actual Time 7:40 AM EST 5:43 PM EST
Civil Twilight 7:13 AM EST 6:10 PM EST
Nautical Twilight 6:42 AM EST 6:41 PM EST
Astronomical Twilight 6:12 AM EST 7:11 PM EST
Moon 6:15 PM EST (12/28) 7:36 AM EST (12/28)
Length of Visible Light 10h 57m
Length of Day
10h 03m
Full, 100% of the Moon is Illuminated
Dec 28
Full
Jan 4
Last Quarter
Jan 11
New
Jan 18
First Quarter
Jan 26
Full

Hourly Weather History & Observations

Time (EST) Temp. Windchill Dew Point Humidity Pressure Visibility Wind Dir Wind Speed Gust Speed Precip Events Conditions
12:04 AM 30.2 °F - 30.2 °F 100% 30.11 in 3.0 mi Calm Calm - N/A   Clear
12:55 AM 28.8 °F - 28.2 °F 98% 30.09 in 9.0 mi Calm Calm - N/A   Clear
1:55 AM 29.5 °F - 28.8 °F 97% 30.11 in 10.0 mi Calm Calm - N/A   Clear
2:55 AM 29.7 °F - 29.1 °F 98% 30.12 in 10.0 mi Calm Calm - N/A   Clear
3:12 AM 30.2 °F 26.7 °F 28.4 °F 93% 30.12 in 2.5 mi SE 3.5 mph - N/A   Clear
3:13 AM 30.2 °F - 28.4 °F 93% 30.12 in 1.8 mi Calm Calm - N/A   Clear
3:14 AM 30.2 °F 26.7 °F 28.4 °F 93% 30.12 in 1.5 mi SE 3.5 mph - N/A   Clear
3:19 AM 28.4 °F 24.6 °F 28.4 °F 100% 30.12 in 1.5 mi SE 3.5 mph - N/A   Clear
3:20 AM 28.4 °F 24.6 °F 28.4 °F 100% 30.12 in 1.8 mi SE 3.5 mph - N/A   Clear
3:21 AM 28.4 °F 24.6 °F 28.4 °F 100% 30.12 in 2.0 mi SE 3.5 mph - N/A   Clear
3:23 AM 28.4 °F 24.6 °F 28.4 °F 100% 30.12 in 3.0 mi ESE 3.5 mph - N/A   Clear
3:24 AM 28.4 °F 24.6 °F 28.4 °F 100% 30.12 in 4.0 mi ESE 3.5 mph - N/A   Clear
3:55 AM 28.2 °F 24.4 °F 27.7 °F 98% 30.12 in 10.0 mi ESE 3.5 mph - N/A   Clear
4:33 AM 28.4 °F - 28.4 °F 100% 30.11 in 7.0 mi Calm Calm - N/A   Clear
4:38 AM 28.4 °F - 28.4 °F 100% 30.10 in 7.0 mi Calm Calm - N/A   Clear
4:50 AM 28.4 °F - 26.6 °F 93% 30.11 in 7.0 mi Calm Calm - N/A   Clear
4:55 AM 27.0 °F - 26.2 °F 97% 30.11 in 3.0 mi Calm Calm - N/A   Clear
4:56 AM 26.6 °F - 26.6 °F 100% 30.10 in 2.0 mi Calm Calm - N/A   Clear
4:57 AM 26.6 °F - 26.6 °F 100% 30.10 in 1.5 mi Calm Calm - N/A   Clear
4:58 AM 26.6 °F - 26.6 °F 100% 30.10 in 1.2 mi Calm Calm - N/A   Clear
4:59 AM 28.4 °F - 26.6 °F 93% 30.10 in 1.0 mi Calm Calm - N/A   Clear
5:00 AM 28.4 °F - 26.6 °F 93% 30.10 in 0.8 mi Calm Calm - N/A   Clear
5:02 AM 28.4 °F - 26.6 °F 93% 30.10 in 0.5 mi Calm Calm - N/A Fog Light Freezing Fog
5:04 AM 26.6 °F - 26.6 °F 100% 30.10 in 0.5 mi Calm Calm - N/A Fog Light Freezing Fog
5:05 AM 26.6 °F - 26.6 °F 100% 30.10 in 0.5 mi Calm Calm - N/A Fog Light Freezing Fog
5:22 AM 26.6 °F - 26.6 °F 100% 30.11 in 0.5 mi Calm Calm - N/A Fog Light Freezing Fog
5:37 AM 26.6 °F - 26.6 °F 100% 30.12 in 0.8 mi Calm Calm - N/A   Clear
5:39 AM 26.6 °F - 26.6 °F 100% 30.12 in 0.8 mi Calm Calm - N/A   Clear
5:44 AM 24.8 °F - 24.8 °F 100% 30.12 in 1.0 mi Calm Calm - N/A   Clear
5:50 AM 24.8 °F - 24.8 °F 100% 30.12 in 0.8 mi Calm Calm - N/A   Clear
5:52 AM 24.8 °F - 24.8 °F 100% 30.12 in 0.8 mi Calm Calm - N/A   Clear
5:54 AM 24.8 °F - 24.8 °F 100% 30.12 in 0.8 mi Calm Calm - N/A   Clear
5:55 AM 25.7 °F - 25.0 °F 97% 30.12 in 0.8 mi Calm Calm - N/A   Clear
5:56 AM 26.6 °F - 24.8 °F 93% 30.12 in 0.8 mi Calm Calm - N/A   Clear
5:58 AM 26.6 °F - 26.6 °F 100% 30.12 in 0.8 mi Calm Calm - N/A   Clear
5:59 AM 26.6 °F - 26.6 °F 100% 30.12 in 0.8 mi Calm Calm - N/A   Clear
6:00 AM 26.6 °F - 26.6 °F 100% 30.12 in 1.0 mi Calm Calm - N/A   Clear
6:02 AM 26.6 °F - 26.6 °F 100% 30.12 in 1.2 mi Calm Calm - N/A   Clear
6:05 AM 26.6 °F - 26.6 °F 100% 30.12 in 1.5 mi Calm Calm - N/A   Clear
6:10 AM 26.6 °F - 26.6 °F 100% 30.12 in 1.5 mi Calm Calm - N/A   Clear
6:12 AM 26.6 °F - 26.6 °F 100% 30.12 in 1.8 mi Calm Calm - N/A   Clear
6:13 AM 26.6 °F - 26.6 °F 100% 30.12 in 2.5 mi Calm Calm - N/A   Clear
6:14 AM 26.6 °F - 26.6 °F 100% 30.12 in 3.0 mi Calm Calm - N/A   Clear
6:55 AM 28.4 °F - 28.0 °F 99% 30.11 in 10.0 mi Calm Calm - N/A   Clear
7:55 AM 30.2 °F - 29.7 °F 98% 30.10 in 10.0 mi Calm Calm - N/A   Clear
8:55 AM 31.3 °F 27.9 °F 30.9 °F 99% 30.11 in 10.0 mi NW 3.5 mph - N/A   Mostly Cloudy
9:55 AM 35.1 °F 32.2 °F 33.8 °F 95% 30.12 in 10.0 mi NW 3.5 mph - N/A   Partly Cloudy
10:55 AM 38.7 °F 35.2 °F 34.0 °F 83% 30.13 in 10.0 mi North 4.6 mph - N/A   Partly Cloudy
11:55 AM 44.2 °F - 35.1 °F 70% 30.09 in 10.0 mi Calm Calm - N/A   Clear
12:55 PM 49.6 °F - 34.5 °F 56% 30.05 in 10.0 mi SE 4.6 mph - N/A   Clear
1:55 PM 53.4 °F - 35.4 °F 51% 30.01 in 10.0 mi Variable 4.6 mph - N/A   Clear
2:55 PM 55.4 °F - 35.1 °F 46% 29.98 in 10.0 mi SSE 6.9 mph - N/A   Clear
3:55 PM 55.4 °F - 34.7 °F 46% 29.96 in 10.0 mi SE 8.1 mph - N/A   Scattered Clouds
4:55 PM 52.3 °F - 36.0 °F 54% 29.96 in 10.0 mi SE 5.8 mph - N/A   Partly Cloudy
5:55 PM 50.0 °F - 36.9 °F 61% 29.95 in 10.0 mi ESE 3.5 mph - N/A   Overcast
6:55 PM 49.1 °F - 37.4 °F 64% 29.94 in 10.0 mi ESE 4.6 mph - N/A   Partly Cloudy
7:55 PM 49.5 °F - 37.9 °F 65% 29.94 in 10.0 mi ESE 5.8 mph - N/A   Overcast
8:55 PM 49.6 °F - 38.3 °F 65% 29.91 in 10.0 mi ESE 6.9 mph - N/A   Overcast
9:40 PM 50.0 °F - 37.4 °F 62% 29.89 in 10.0 mi Calm Calm - N/A   Light Drizzle
9:55 PM 49.1 °F - 39.0 °F 68% 29.90 in 10.0 mi NNE 3.5 mph - 0.00 in Rain Light Rain
10:12 PM 46.4 °F - 41.0 °F 81% 29.91 in 6.0 mi Calm Calm - N/A Rain Rain
10:55 PM 44.4 °F 42.9 °F 43.0 °F 95% 29.87 in 8.0 mi ESE 3.5 mph - 0.14 in Rain Light Rain
11:04 PM 44.6 °F 42.2 °F 42.8 °F 93% 29.86 in 9.0 mi East 4.6 mph - N/A Rain Light Rain
11:37 PM 44.6 °F 41.4 °F 42.8 °F 93% 29.84 in 10.0 mi ESE 5.8 mph - N/A   Overcast
11:55 PM 44.6 °F 40.7 °F 43.9 °F 97% 29.82 in 10.0 mi ESE 6.9 mph - 0.01 in Rain Light Rain